Drummond Island, MI

2:49 PM EDT on September 26, 2016 (GMT -0400)
Drummond Island

Weather History for KDRM - September, 2014

Change the Weather History Date:

Thursday, September 4, 2014

  Actual Average (KCIU) Record (KCIU)
Temperature  
Mean Temperature 66 °F -  
Max Temperature 70 °F 70 °F 86 °F (1999)
Min Temperature 61 °F 43 °F 29 °F (1984)
Growing Degree Days 16 (Base 50)    
Moisture  
Dew Point 63 °F    
Average Humidity 90    
Maximum Humidity 100    
Minimum Humidity 78    
Precipitation  
Precipitation 0.00 in - - ()
Sea Level Pressure  
Sea Level Pressure 29.92 in    
Wind  
Wind Speed 3 mph (SSE)    
Max Wind Speed 12 mph    
Max Gust Speed -    
Visibility 10 miles    
Events Rain    
Averages and records for this station are not official NWS values.
T = Trace of Precipitation, MM = Missing Value Source: NWS Daily Summary

Daily Weather History Graph

Daily Weather History Graph

Search for Another Location

Airport or City:

Trip Planner

Search our weather history database for the weather conditions in past years. The results will help you decide how hot, cold, wet, or windy it might be!

Date:

Astronomy

Sep. 04, 2014 Rise Set
Actual Time 6:59 AM EDT 8:07 PM EDT
Civil Twilight 6:28 AM EDT 8:38 PM EDT
Nautical Twilight 5:51 AM EDT 9:14 PM EDT
Astronomical Twilight 5:12 AM EDT 9:53 PM EDT
Moon 4:54 PM EDT (9/4) 1:38 AM EDT (9/4)
Length of Visible Light 14h 09m
Length of Day
13h 08m
Waxing Gibbous, 74% of the Moon is Illuminated
Sep 4
Waxing Gibbous
Sep 8
Full
Sep 15
Last Quarter
Sep 24
New
Oct 1
First Quarter

Hourly Weather History & Observations

Time (EDT) Temp. Dew Point Humidity Pressure Visibility Wind Dir Wind Speed Gust Speed Precip Events Conditions
12:15 AM 62.8 °F 61.7 °F 96% 29.95 in 10.0 mi SSE 4.6 mph - N/A   Scattered Clouds
12:35 AM 63.1 °F 62.2 °F 97% 29.96 in 10.0 mi SE 3.5 mph - N/A   Scattered Clouds
12:55 AM 63.0 °F 62.1 °F 97% 29.96 in 10.0 mi SE 3.5 mph - N/A   Clear
1:15 AM 63.1 °F 61.7 °F 95% 29.96 in 10.0 mi Calm Calm - N/A   Clear
1:35 AM 62.6 °F 61.3 °F 96% 29.95 in 10.0 mi SSE 3.5 mph - N/A   Clear
1:55 AM 63.7 °F 60.8 °F 90% 29.95 in 10.0 mi SSE 5.8 mph - N/A   Mostly Cloudy
2:15 AM 64.6 °F 60.4 °F 86% 29.95 in 10.0 mi South 4.6 mph - N/A   Mostly Cloudy
2:35 AM 64.6 °F 60.6 °F 87% 29.94 in 10.0 mi SSE 4.6 mph - N/A   Overcast
2:54 AM 64.4 °F 60.8 °F 88% 29.93 in 10.0 mi SSE 4.6 mph - N/A   Scattered Clouds
3:15 AM 64.4 °F 60.8 °F 88% 29.94 in 10.0 mi SSE 5.8 mph - N/A   Scattered Clouds
3:35 AM 64.4 °F 60.8 °F 88% 29.95 in 10.0 mi South 4.6 mph - N/A   Scattered Clouds
3:54 AM 64.4 °F 60.8 °F 88% 29.96 in 10.0 mi SSW 4.6 mph - N/A   Scattered Clouds
4:15 AM 64.4 °F 60.8 °F 88% 29.98 in 10.0 mi Calm Calm - N/A   Mostly Cloudy
4:35 AM 63.0 °F 61.0 °F 93% 29.99 in 10.0 mi Calm Calm - N/A Rain Light Rain
4:54 AM 63.3 °F 61.0 °F 92% 29.98 in 10.0 mi Calm Calm - N/A   Overcast
5:15 AM 62.2 °F 60.4 °F 94% 29.96 in 10.0 mi Calm Calm - N/A   Mostly Cloudy
5:35 AM 61.7 °F 60.4 °F 96% 29.95 in 10.0 mi Calm Calm - N/A Rain Light Rain
5:54 AM 62.4 °F 60.8 °F 94% 29.93 in 10.0 mi Calm Calm - N/A Rain Light Rain
6:15 AM 62.1 °F 61.3 °F 97% 29.93 in 10.0 mi Calm Calm - N/A Rain Light Rain
6:35 AM 62.2 °F 61.7 °F 98% 29.93 in 10.0 mi Calm Calm - N/A Rain Light Rain
6:55 AM 62.2 °F 61.2 °F 96% 29.91 in 10.0 mi SE 3.5 mph - N/A   Mostly Cloudy
7:15 AM 62.2 °F 61.0 °F 96% 29.90 in 10.0 mi SE 5.8 mph - N/A   Mostly Cloudy
7:34 AM 62.6 °F 60.8 °F 94% 29.89 in 10.0 mi SE 3.5 mph - N/A   Mostly Cloudy
7:55 AM 62.6 °F 60.8 °F 94% 29.91 in 10.0 mi South 4.6 mph - N/A   Mostly Cloudy
8:15 AM 62.6 °F 60.8 °F 94% 29.91 in 10.0 mi Calm Calm - N/A   Scattered Clouds
8:34 AM 64.9 °F 61.7 °F 89% 29.91 in 10.0 mi SSE 4.6 mph - N/A   Mostly Cloudy
8:55 AM 66.2 °F 62.1 °F 86% 29.90 in 10.0 mi SSE 4.6 mph - N/A   Scattered Clouds
9:15 AM 67.6 °F 62.1 °F 82% 29.91 in 10.0 mi SSE 4.6 mph - N/A   Clear
9:35 AM 68.2 °F 62.1 °F 81% 29.91 in 10.0 mi South 4.6 mph - N/A   Mostly Cloudy
9:54 AM 68.4 °F 63.1 °F 83% 29.93 in 10.0 mi South 5.8 mph - N/A   Overcast
10:15 AM 68.9 °F 62.8 °F 81% 29.92 in 10.0 mi SE 5.8 mph - N/A   Overcast
10:34 AM 68.0 °F 62.2 °F 82% 29.91 in 10.0 mi SSE 6.9 mph - N/A   Overcast
10:55 AM 67.6 °F 61.9 °F 82% 29.92 in 10.0 mi SSE 8.1 mph - N/A   Mostly Cloudy
11:14 AM 67.1 °F 61.5 °F 82% 29.93 in 10.0 mi SSE 4.6 mph - N/A   Overcast
11:35 AM 66.7 °F 61.5 °F 83% 29.93 in 10.0 mi SSE 3.5 mph - N/A   Overcast
11:54 AM 67.8 °F 61.9 °F 81% 29.93 in 10.0 mi SSE 5.8 mph - N/A   Overcast
12:15 PM 68.7 °F 62.2 °F 80% 29.92 in 10.0 mi SE 4.6 mph - N/A   Overcast
12:35 PM 69.4 °F 62.8 °F 79% 29.93 in 10.0 mi SSE 4.6 mph - N/A   Overcast
12:54 PM 69.8 °F 62.8 °F 78% 29.93 in 10.0 mi SSE 5.8 mph - N/A   Overcast
1:15 PM 70.0 °F 63.0 °F 78% 29.94 in 10.0 mi SE 4.6 mph - N/A   Overcast
1:35 PM 69.4 °F 63.0 °F 80% 29.94 in 10.0 mi SSE 4.6 mph - N/A   Overcast
1:55 PM 68.9 °F 63.3 °F 82% 29.94 in 10.0 mi SSE 5.8 mph - N/A   Overcast
2:15 PM 68.2 °F 62.8 °F 83% 29.94 in 10.0 mi SE 4.6 mph - N/A   Overcast
2:34 PM 67.5 °F 62.6 °F 84% 29.94 in 10.0 mi SSE 4.6 mph - N/A   Overcast
2:55 PM 67.1 °F 62.6 °F 85% 29.95 in 10.0 mi Calm Calm - N/A   Overcast
3:15 PM 66.9 °F 63.0 °F 87% 29.97 in 10.0 mi Calm Calm - N/A   Overcast
3:34 PM 66.4 °F 63.0 °F 89% 29.96 in 10.0 mi South 3.5 mph - N/A   Overcast
3:54 PM 66.4 °F 63.3 °F 90% 29.96 in 10.0 mi Calm Calm - N/A   Overcast
3:58 PM 66.4 °F 63.5 °F 90% 29.96 in 10.0 mi SW 3.5 mph - N/A   Overcast
5:54 PM 68.2 °F 63.3 °F 84% 29.70 in 10.0 mi SSW 9.2 mph - N/A   Clear
5:55 PM 68.4 °F 63.3 °F 84% 29.71 in 10.0 mi SSW 11.5 mph - N/A   Clear
6:15 PM 68.7 °F 63.5 °F 83% 29.80 in 10.0 mi Calm Calm - N/A   Scattered Clouds
6:34 PM 69.8 °F 64.4 °F 83% 29.83 in 10.0 mi Calm Calm - N/A   Mostly Cloudy
6:55 PM 69.1 °F 64.8 °F 86% 29.85 in 10.0 mi North 3.5 mph - N/A   Scattered Clouds
7:15 PM 68.9 °F 65.5 °F 89% 29.87 in 10.0 mi Calm Calm - N/A   Mostly Cloudy
7:34 PM 68.0 °F 65.8 °F 93% 29.86 in 10.0 mi Calm Calm - N/A   Scattered Clouds
7:55 PM 66.9 °F 65.3 °F 95% 29.88 in 10.0 mi Calm Calm - N/A   Clear
8:15 PM 64.9 °F 64.4 °F 98% 29.88 in 5.0 mi Calm Calm - N/A   Clear
8:35 PM 64.6 °F 64.6 °F 100% 29.88 in 7.0 mi Calm Calm - N/A   Clear
8:55 PM 65.5 °F 65.5 °F 100% 29.88 in 10.0 mi ESE 3.5 mph - N/A   Clear
9:14 PM 65.3 °F 64.8 °F 98% 29.88 in 10.0 mi Calm Calm - N/A   Clear
9:35 PM 64.6 °F 64.4 °F 99% 29.90 in 10.0 mi Calm Calm - N/A   Clear
10:14 PM 64.9 °F 64.8 °F 99% 29.92 in 10.0 mi Calm Calm - N/A   Overcast
10:35 PM 65.7 °F 65.1 °F 98% 29.93 in 10.0 mi Calm Calm - N/A   Overcast
10:55 PM 65.3 °F 64.4 °F 97% 29.90 in 10.0 mi Calm Calm - N/A   Mostly Cloudy
11:15 PM 65.8 °F 64.6 °F 96% 29.89 in 10.0 mi ESE 3.5 mph - N/A   Scattered Clouds
11:35 PM 66.4 °F 64.0 °F 92% 29.87 in 10.0 mi ESE 5.8 mph - N/A   Clear
11:55 PM 65.5 °F 63.7 °F 94% 29.88 in 10.0 mi North 3.5 mph - N/A   Clear